Location: Foligno
(42.9600°N, 12.7050°E)
Time: 10:22:02
(UTC+02:00)

ISS - Pass Details

Date: 17 May 2018
Orbit: 402 x 407 km, 51.6° (Epoch: 23 May)

Event Time Altitude Azimuth Distance (km) Brightness Sun altitude
Exits shadow 02:39:02 13° 318° (NW) 1,284 -1.1 -24.2°
Maximum altitude 02:40:43 18° 355° (N) 1,069 -1.0 -24.0°
Drops below altitude 10° 02:43:04 10° 41° (NE) 1,458 0.0 -23.8°
Sets 02:45:36 0° 61° (ENE) 2,318 0.9 -23.6°
